Flag for Germany Weather past 2 weeks in Gotha, Thuringia, Germany

Now
71 °F

Passing clouds.


Feels Like: 70 °F
Forecast: 70 / 92 °F
Wind: 2 mph from Southwest

Location: Erfurt-Bindersleben

Current Time: Jul 4, 2015 at 2:49:27 AM

Latest Report: Jul 4, 2015 at 2:00 AM


Visibility: 25 mi

Pressure: 30.19 "Hg

Humidity: 83%

Dew point: 65 °F

Location of GothaLocation

Historic Weather in Gotha — Graph

°F

Gotha temperature yesterday

Maximum temperature yesterday: 92 °F (at 5:00 PM)
Minimum temperature yesterday: 69 °F (at 6:00 AM)
Average temperature yesterday: 79 °F

Past Weeks' High & Low Weather Summary

 TemperatureHumidityPressure
High92 °F (Jul 3, 5:00 PM)99% (Jun 23, 3:00 AM)30.25 "Hg (Jun 23, 3:00 AM)
Low44 °F (Jun 21, 3:00 AM)32% (Jul 3, 5:00 PM)29.65 "Hg (Jun 23, 2:00 AM)
Average62 °F70%30.08 "Hg
* Reported Jun 19 2:00 AM — Jul 4 2:00 AM, Gotha, Weather by CustomWeather, © 2015

Note: Actual official high and low records may vary slightly from our data, if they occured in-between our weather recording intervals... More about our weather records

Advertising

Gotha weather history for previous 24 hours

 ConditionsComfort  
Time TempWeatherWind HumidityBarometerVisibility
2:00 AM
Sat, Jul 4
71 °FPassing clouds.2 mph83%30.19 "Hg25 mi
1:00 AM74 °FPassing clouds.1 mph69%30.19 "Hg25 mi
11:00 PM
Fri, Jul 3
74 °FPassing clouds.1 mph71%30.20 "Hg28 mi
10:00 PM74 °FPassing clouds.2 mph71%30.20 "Hg28 mi
9:00 PM77 °FScattered clouds.3 mph65%30.19 "Hg28 mi
8:00 PM74 °FLight rain. Scattered clouds.3 mph72%30.20 "Hg28 mi
7:00 PM79 °FThundershowers. Partly sunny.3 mph53%30.18 "Hg3 mi
6:00 PM91 °FThunderstorms. Partly sunny.3 mph33%30.13 "Hg22 mi
5:00 PM92 °FPassing clouds.2 mph32%30.15 "Hg28 mi
4:00 PM91 °FScattered clouds.5 mph33%30.16 "Hg25 mi
3:00 PM90 °FScattered clouds.2 mph35%30.17 "Hg25 mi
2:00 PM89 °FScattered clouds.3 mph36%30.19 "Hg25 mi
1:00 PM86 °FPartly sunny.5 mph41%30.21 "Hg25 mi
12:00 PM84 °FPartly sunny.6 mph45%30.24 "Hg25 mi
11:00 AM81 °FPartly sunny.6 mph55%30.25 "Hg25 mi
10:00 AM78 °FPassing clouds.3 mph58%30.23 "Hg31 mi
9:00 AM76 °FPassing clouds.3 mph63%30.22 "Hg31 mi
8:00 AM75 °FPassing clouds.2 mph59%30.20 "Hg31 mi
7:00 AM72 °FPassing clouds.1 mph65%30.20 "Hg31 mi
6:00 AM69 °FPassing clouds.1 mph67%30.20 "Hg31 mi
5:00 AM70 °FClear.5 mph64%30.19 "Hg31 mi
4:00 AM71 °FClear.5 mph64%30.19 "Hg37 mi
3:00 AM70 °FClear.3 mph66%30.18 "Hg37 mi
2:00 AM71 °FClear.5 mph62%30.18 "Hg37 mi
Weather by CustomWeather, © 2015

See weather overviewHow to use our weather pages